Starlink 2340

operational
NORAD ID: 47882 Int'l Des: 2021-021 Owner: SPXS Country: US Constellation: starlink
LEOCIRCULAR

关于 Starlink 2340

正在加载描述...

实时位置

正在加载3D地球...

即将过境

高度历史

Altitude vs Time

uPlot chart will show altitude changes over time

两行轨道根数

1 47882U 21021Y 25257.53963316 .00139587 00000-0 20361-2 0 9999
2 47882 53.0449 279.9633 0007653 46.3232 313.8411 15.54707497250698
Epoch: Sep 14, 2025 • Age: 20 hours

当前状态

高度 402.2 km
速度 7.68 km/s
星下点 46.00°N, 167.14°W
发射日期 Mar 14, 2021
运行时间 4.5 years
类型 internet

技术详情

分类 Payload
质量 260.00 kg
干质量 248.00 kg
总质量 260.00 kg
长度 0.20 m
直径 2.80 m
跨度 9.00 m
形状 Box + pan
制造商 SPXS
平台类型 Starlink
阶段状态 In Orbit
所有者/国家 SPXS/US

大型星座

Loading constellations...